EW4504 Weather Reports


Display with metric or nautical units.
time (UTC)temp
F
wind
direction
speed
MPH
gust
MPH
rain 1hr
in
rain 24hr
in
rain mn
in
humidity
%
barometer
mb
20260503004543 60 312 3.0 7.0 0.00 0.00 0.00 43 1014.7
20260503004031 60 315 2.0 6.0 0.00 0.00 0.00 43 1014.7
20260503003530 60 337 2.0 6.0 0.00 0.00 0.00 42 1014.6
20260503003041 61 338 2.0 8.0 0.00 0.00 0.00 43 1014.5
20260503002531 61 329 2.0 9.0 0.00 0.00 0.00 42 1014.5
20260503002031 61 325 3.0 10.0 0.00 0.00 0.00 41 1014.5
20260503001557 61 338 4.0 10.0 0.00 0.00 0.00 41 1014.5
20260503001032 62 26 4.0 15.0 0.00 0.00 0.00 41 1014.3
20260503000533 62 333 4.0 15.0 0.00 0.00 0.00 41 1014.3
20260503000109 62 331 5.0 12.0 0.00 0.00 0.00 41 1014.3
20260502235528 62 347 4.0 10.0 0.00 0.00 0.00 41 1014.2
20260502235032 62 9 2.0 10.0 0.00 0.00 0.00 40 1014.0
20260502234542 63 344 4.0 10.0 0.00 0.00 0.00 40 1013.9
20260502234030 63 346 5.0 9.0 0.00 0.00 0.00 40 1013.9
20260502233530 63 342 4.0 10.0 0.00 0.00 0.00 40 1013.8
20260502233042 63 355 4.0 12.0 0.00 0.00 0.00 40 1013.8
20260502232534 63 355 5.0 13.0 0.00 0.00 0.00 39 1013.8
20260502232030 63 324 6.0 19.0 0.00 0.00 0.00 39 1013.7
20260502231556 63 312 8.0 19.0 0.00 0.00 0.00 39 1013.7
20260502231031 64 323 5.0 12.0 0.00 0.00 0.00 39 1013.6
20260502230531 64 315 5.0 12.0 0.00 0.00 0.00 38 1013.6
20260502230041 64 317 5.0 15.0 0.00 0.00 0.00 38 1013.6
20260502225530 64 352 9.0 15.0 0.00 0.00 0.00 37 1013.4
20260502225034 64 336 5.0 14.0 0.00 0.00 0.00 38 1013.5
20260502224540 64 317 6.0 16.0 0.00 0.00 0.00 37 1013.5
20260502224028 64 5 8.0 16.0 0.00 0.00 0.00 37 1013.5
20260502223528 65 355 6.0 16.0 0.00 0.00 0.00 37 1013.5
20260502223035 65 292 3.0 15.0 0.00 0.00 0.00 37 1013.5
20260502222531 65 284 6.0 12.0 0.00 0.00 0.00 36 1013.6
20260502222031 65 319 6.0 14.0 0.00 0.00 0.00 36 1013.7
20260502221546 64 328 5.0 16.0 0.00 0.00 0.00 36 1013.6
20260502221031 65 342 6.0 22.0 0.00 0.00 0.00 35 1013.6
20260502220532 65 273 11.0 22.0 0.00 0.00 0.00 35 1013.6
20260502220047 65 350 8.0 22.0 0.00 0.00 0.00 35 1013.5
20260502215532 65 321 7.0 22.0 0.00 0.00 0.00 35 1013.3
20260502215032 65 295 9.0 22.0 0.00 0.00 0.00 34 1013.3
20260502214541 66 306 9.0 19.0 0.00 0.00 0.00 34 1013.2
20260502214030 66 350 5.0 19.0 0.00 0.00 0.00 34 1013.0
20260502213531 66 319 7.0 19.0 0.00 0.00 0.00 33 1012.9
20260502213041 66 330 7.0 21.0 0.00 0.00 0.00 34 1012.8
20260502212531 66 336 7.0 21.0 0.00 0.00 0.00 35 1012.9
20260502212032 66 329 6.0 17.0 0.00 0.00 0.00 34 1012.9
20260502211544 66 320 8.0 16.0 0.00 0.00 0.00 33 1012.8
20260502211030 66 297 6.0 15.0 0.00 0.00 0.00 34 1012.8
20260502210534 67 338 6.0 15.0 0.00 0.00 0.00 34 1012.7
20260502210042 67 317 4.0 15.0 0.00 0.00 0.00 35 1012.6
20260502205531 67 334 7.0 15.0 0.00 0.00 0.00 34 1012.5
20260502205030 67 211 6.0 15.0 0.00 0.00 0.00 33 1012.4
20260502204545 68 298 5.0 15.0 0.00 0.00 0.00 34 1012.2
20260502204034 68 220 5.0 13.0 0.00 0.00 0.00 33 1012.3
20260502203531 67 331 2.0 14.0 0.00 0.00 0.00 34 1012.4
20260502203046 67 336 5.0 20.0 0.00 0.00 0.00 34 1012.3
20260502202534 68 311 3.0 20.0 0.00 0.00 0.00 35 1012.4
20260502202030 67 360 7.0 20.0 0.00 0.00 0.00 35 1012.4
20260502201547 67 245 6.0 17.0 0.00 0.00 0.00 36 1012.5
20260502201031 67 38 5.0 18.0 0.00 0.00 0.00 38 1012.4
20260502200531 67 352 8.0 18.0 0.00 0.00 0.00 38 1012.3
20260502200047 67 26 8.0 18.0 0.00 0.00 0.00 38 1012.5
20260502195530 68 319 6.0 10.0 0.00 0.00 0.00 40 1012.4
20260502195030 68 313 4.0 15.0 0.00 0.00 0.00 42 1012.4
20260502194549 67 12 5.0 16.0 0.00 0.00 0.00 41 1012.3
20260502194031 68 333 7.0 16.0 0.00 0.00 0.00 41 1012.4
20260502193531 68 313 3.0 13.0 0.00 0.00 0.00 43 1012.3
20260502193057 67 319 5.0 17.0 0.00 0.00 0.00 43 1012.3
20260502192531 67 305 4.0 17.0 0.00 0.00 0.00 43 1012.4
20260502192030 67 300 6.0 17.0 0.00 0.00 0.00 44 1012.5
20260502191549 68 245 4.0 13.0 0.00 0.00 0.00 45 1012.5
20260502191032 68 296 5.0 18.0 0.00 0.00 0.00 45 1012.6
20260502190533 67 321 7.0 18.0 0.00 0.00 0.00 45 1012.7
20260502190040 67 317 5.0 14.0 0.00 0.00 0.00 45 1012.5
20260502185531 68 338 5.0 15.0 0.00 0.00 0.00 45 1012.6
20260502185028 68 242 5.0 15.0 0.00 0.00 0.00 46 1012.4
20260502184542 68 291 4.0 9.0 0.00 0.00 0.00 46 1012.4
20260502184029 68 287 4.0 13.0 0.00 0.00 0.00 46 1012.3
20260502183532 67 271 6.0 13.0 0.00 0.00 0.00 46 1012.4
20260502183036 68 324 6.0 12.0 0.00 0.00 0.00 47 1012.4
20260502182529 68 292 4.0 13.0 0.00 0.00 0.00 47 1012.4
20260502182028 67 263 4.0 16.0 0.00 0.00 0.00 48 1012.4
20260502181548 67 198 3.0 16.0 0.00 0.00 0.00 48 1012.4
20260502181029 68 332 5.0 13.0 0.00 0.00 0.00 47 1012.4
20260502180530 67 293 4.0 13.0 0.00 0.00 0.00 49 1012.4
20260502164028 65 287 3.0 11.0 0.00 0.00 0.00 56 1013.1
20260502163528 65 333 4.0 11.0 0.00 0.00 0.00 57 1013.1
20260502163044 65 246 5.0 11.0 0.00 0.00 0.00 58 1013.1
20260502162529 64 245 3.0 11.0 0.00 0.00 0.00 58 1013.1
20260502162028 65 225 4.0 11.0 0.00 0.00 0.00 57 1013.0
20260502161603 65 308 4.0 11.0 0.00 0.00 0.00 58 1013.0
20260502161038 65 17 3.0 11.0 0.00 0.00 0.00 58 1013.1
20260502160530 64 332 4.0 11.0 0.00 0.00 0.00 58 1013.2
20260502160103 65 331 6.0 11.0 0.00 0.00 0.00 58 1013.1
20260502152029 61 306 1.0 8.0 0.00 0.00 0.00 64 1013.4
20260502151542 60 42 2.0 7.0 0.00 0.00 0.00 64 1013.4
20260502151028 60 360 2.0 8.0 0.00 0.00 0.00 65 1013.3
20260502150529 59 313 2.0 8.0 0.00 0.00 0.00 65 1013.4
20260502130528 54 0 1.0 5.0 0.00 0.00 0.00 70 1012.8
20260502123529 54 0 1.0 5.0 0.00 0.00 0.00 69 1012.0
20260502123111 54 297 0.0 3.0 0.00 0.00 0.00 69 1012.1
20260502122528 54 294 1.0 3.0 0.00 0.00 0.00 70 1012.4
20260502122032 54 0 0.0 3.0 0.00 0.00 0.00 70 1012.7
20260502121543 54 0 0.0 3.0 0.00 0.00 0.00 70 1012.3
20260502121029 54 258 1.0 3.0 0.00 0.00 0.00 70 1012.2
20260502120532 54 223 0.0 2.0 0.00 0.00 0.00 70 1012.2
20260502115530 54 0 0.0 3.0 0.00 0.00 0.00 70 1012.3
20260502115029 54 0 0.0 3.0 0.00 0.00 0.00 70 1012.3
20260502114537 54 0 1.0 3.0 0.00 0.00 0.00 69 1011.8
20260502114028 54 220 1.0 3.0 0.00 0.00 0.00 69 1011.6
20260502113528 54 0 0.0 3.0 0.00 0.00 0.00 70 1012.1
20260502113043 54 218 0.0 3.0 0.00 0.00 0.00 69 1012.2
20260502112530 54 288 1.0 3.0 0.00 0.00 0.00 69 1012.1
20260502112027 54 0 0.0 4.0 0.00 0.00 0.00 70 1012.5
20260502111540 54 274 0.0 4.0 0.00 0.00 0.00 70 1012.3
20260502111030 55 273 1.0 3.0 0.00 0.00 0.00 71 1012.4
20260502110529 55 0 0.0 3.0 0.00 0.00 0.00 72 1012.7
20260502110048 55 282 0.0 3.0 0.00 0.00 0.00 72 1012.5
20260502105528 55 284 0.0 4.0 0.00 0.00 0.00 72 1012.3
20260502105029 55 286 1.0 4.0 0.00 0.00 0.00 72 1012.2
20260502104537 55 290 2.0 4.0 0.00 0.00 0.00 72 1012.1
20260502104029 55 314 0.0 2.0 0.00 0.00 0.00 72 1011.8
20260502103529 55 316 1.0 2.0 0.00 0.00 0.00 72 1011.8
20260502103035 55 0 0.0 2.0 0.00 0.00 0.00 72 1011.7
20260502102528 55 316 0.0 1.0 0.00 0.00 0.00 72 1011.6
20260502102035 55 0 0.0 2.0 0.00 0.00 0.00 72 1011.7
20260502101550 56 0 0.0 3.0 0.00 0.00 0.00 72 1011.5
20260502101027 56 316 0.0 3.0 0.00 0.00 0.00 72 1011.4
20260502100527 56 342 1.0 6.0 0.00 0.00 0.00 72 1011.0
20260502091027 56 320 1.0 6.0 0.00 0.00 0.00 74 1011.6
20260502090528 56 315 2.0 5.0 0.00 0.00 0.00 75 1011.6
20260502071032 57 0 0.0 3.0 0.00 0.00 0.00 81 1011.9
20260502070532 57 296 1.0 3.0 0.00 0.00 0.00 81 1012.1
20260502070042 57 0 0.0 2.0 0.00 0.00 0.00 82 1012.0
20260502065530 57 0 0.0 2.0 0.00 0.00 0.00 82 1012.0
20260502065027 57 0 0.0 2.0 0.00 0.00 0.00 82 1012.4
20260502064543 57 0 0.0 2.0 0.00 0.00 0.00 81 1012.4
20260502064031 57 0 0.0 2.0 0.00 0.00 0.00 81 1012.3
20260502063527 57 0 0.0 1.0 0.00 0.00 0.00 82 1012.6
20260502063052 57 0 0.0 0.0 0.00 0.00 0.00 82 1012.7
20260502062527 58 0 0.0 2.0 0.00 0.00 0.00 82 1012.7
20260502062026 58 0 0.0 2.0 0.00 0.00 0.00 82 1012.6
20260502061537 58 0 0.0 2.0 0.00 0.00 0.00 82 1012.6
20260502061030 58 294 0.0 2.0 0.00 0.00 0.00 81 1012.6
20260502060533 58 0 0.0 3.0 0.00 0.00 0.00 81 1012.7
20260502060044 58 0 0.0 3.0 0.00 0.00 0.00 81 1012.8
20260502055530 58 0 0.0 0.0 0.00 0.00 0.00 81 1012.7
20260502055032 58 0 0.0 0.0 0.00 0.00 0.00 80 1012.8
20260502054540 58 0 0.0 0.0 0.00 0.00 0.00 80 1012.7
20260502054030 58 0 0.0 0.0 0.00 0.00 0.00 80 1012.7
20260502053530 59 0 0.0 0.0 0.00 0.00 0.00 80 1012.7
20260502053047 59 0 0.0 0.0 0.00 0.00 0.00 78 1012.6
20260502052529 59 0 0.0 0.0 0.00 0.00 0.00 78 1012.5
20260502052030 59 0 0.0 1.0 0.00 0.00 0.00 78 1012.4
20260502051548 59 0 0.0 1.0 0.00 0.00 0.00 77 1012.7
20260502051030 60 0 0.0 1.0 0.00 0.00 0.00 77 1012.8
20260502050530 60 0 0.0 2.0 0.00 0.00 0.00 75 1012.8
20260502050043 60 0 0.0 2.0 0.00 0.00 0.00 74 1012.7
20260502045530 60 0 0.0 2.0 0.00 0.00 0.00 73 1012.7
20260502045033 60 294 0.0 3.0 0.00 0.00 0.00 72 1012.7
20260502044542 60 294 0.0 5.0 0.00 0.00 0.00 71 1012.8
20260502044029 60 0 1.0 8.0 0.00 0.00 0.00 71 1012.8
20260502043530 60 296 1.0 8.0 0.00 0.00 0.00 71 1012.7
20260502043046 60 318 3.0 8.0 0.00 0.00 0.00 71 1012.6
20260502042529 60 325 1.0 6.0 0.00 0.00 0.00 70 1012.7
20260502042032 60 333 2.0 6.0 0.00 0.00 0.00 70 1012.9
20260502041552 60 337 1.0 6.0 0.00 0.00 0.00 70 1013.0
20260502041027 60 331 2.0 5.0 0.00 0.00 0.00 70 1013.1
20260502040530 60 312 2.0 4.0 0.00 0.00 0.00 71 1013.2
20260502040046 60 306 0.0 5.0 0.00 0.00 0.00 71 1013.2
20260502035529 60 318 1.0 5.0 0.00 0.00 0.00 71 1013.3
20260502035030 60 319 2.0 5.0 0.00 0.00 0.00 72 1013.3
20260502034541 60 323 2.0 4.0 0.00 0.00 0.00 72 1013.3
20260502034029 60 331 2.0 4.0 0.00 0.00 0.00 73 1013.3
20260502033530 61 0 1.0 4.0 0.00 0.00 0.00 73 1013.3
20260502033046 61 303 0.0 2.0 0.00 0.00 0.00 73 1013.4
20260502032529 61 0 0.0 3.0 0.00 0.00 0.00 73 1013.4
20260502032029 61 304 1.0 4.0 0.00 0.00 0.00 73 1013.5
20260502031539 61 306 2.0 4.0 0.00 0.00 0.00 73 1013.6
20260502031030 60 0 1.0 4.0 0.00 0.00 0.00 72 1013.6
20260502030530 61 302 1.0 3.0 0.00 0.00 0.00 73 1013.6
20260502030040 61 281 1.0 3.0 0.00 0.00 0.00 74 1013.6
20260502025532 61 281 0.0 2.0 0.00 0.00 0.00 73 1013.5
20260502025033 61 0 0.0 2.0 0.00 0.00 0.00 73 1013.6
20260502024555 61 0 0.0 2.0 0.00 0.00 0.00 73 1013.6
20260502024032 61 281 0.0 2.0 0.00 0.00 0.00 73 1013.5
20260502023532 61 281 0.0 2.0 0.00 0.00 0.00 73 1013.5
20260502023044 61 279 0.0 2.0 0.00 0.00 0.00 73 1013.6
20260502022533 61 0 0.0 1.0 0.00 0.00 0.00 73 1013.6
20260502022034 61 0 0.0 1.0 0.00 0.00 0.00 73 1013.6
20260502021540 61 0 0.0 2.0 0.00 0.00 0.00 72 1013.6
20260502021030 61 0 0.0 2.0 0.00 0.00 0.00 72 1013.5
20260502020530 61 0 0.0 2.0 0.00 0.00 0.00 72 1013.5
20260502020040 61 0 0.0 1.0 0.00 0.00 0.00 72 1013.5
20260502015533 61 0 0.0 2.0 0.00 0.00 0.00 72 1013.4
20260502015029 61 0 0.0 3.0 0.00 0.00 0.00 72 1013.3
20260502014538 61 278 0.0 3.0 0.00 0.00 0.00 72 1013.3
20260502014030 61 279 1.0 3.0 0.00 0.00 0.00 71 1013.3
20260502013530 62 0 0.0 2.0 0.00 0.00 0.00 72 1013.3
20260502013043 62 0 0.0 2.0 0.00 0.00 0.00 72 1013.3
20260502012532 62 0 0.0 1.0 0.00 0.00 0.00 72 1013.2
20260502012032 62 0 0.0 1.0 0.00 0.00 0.00 71 1013.1
20260502011540 62 0 0.0 1.0 0.00 0.00 0.00 70 1013.1
20260502011030 62 0 0.0 1.0 0.00 0.00 0.00 70 1012.9
20260502010531 62 0 0.0 0.0 0.00 0.00 0.00 69 1012.7
20260502010049 62 0 0.0 1.0 0.00 0.00 0.00 69 1012.4
20260502005531 62 0 0.0 1.0 0.00 0.00 0.00 68 1012.4
20260502005031 62 0 0.0 1.0 0.00 0.00 0.00 68 1012.4